FW1957 Weather Reports


Display with metric or nautical units.
time (UTC)temp
F
wind
direction
speed
MPH
gust
MPH
rain 1hr
in
rain 24hr
in
rain mn
in
humidity
%
barometer
mb
20260508065209 55 322 5.0 14.0 0.01 0.56 0.01 91 1015.4
20260508064712 55 355 5.0 9.0 0.01 0.56 0.01 93 1015.4
20260508064205 54 349 5.0 11.0 0.01 0.56 0.01 94 1015.4
20260508063708 53 349 6.0 11.0 0.01 0.56 0.01 94 1015.4
20260508063219 53 315 5.0 11.0 0.00 0.55 0.00 94 1015.4
20260508062708 53 312 3.0 8.0 0.00 0.55 0.00 95 1015.4
20260508062215 53 338 3.0 8.0 0.00 0.55 0.00 95 1015.3
20260508061709 52 334 4.0 8.0 0.00 0.55 0.00 95 1015.3
20260508061213 52 308 4.0 6.0 0.00 0.55 0.00 95 1015.3
20260508060718 51 326 3.0 6.0 0.00 0.55 0.00 95 1015.2
20260508055707 51 69 1.0 3.0 0.00 0.55 0.00 95 1015.2
20260508055217 51 190 1.0 4.0 0.00 0.55 0.00 95 1015.2
20260508054709 50 177 2.0 5.0 0.00 0.55 0.00 95 1015.2
20260508053711 50 238 2.0 5.0 0.00 0.55 0.00 95 1015.2
20260508052808 50 195 1.0 3.0 0.00 0.55 0.00 95 1015.1
20260508052755 49 227 1.0 3.0 0.00 0.55 0.00 95 1015.0
20260508051719 49 200 1.0 2.0 0.00 0.55 0.00 95 1015.0
20260508051216 48 185 0.0 0.0 0.00 0.55 0.00 95 1015.0
20260508050211 48 292 0.0 5.0 0.00 0.55 0.00 94 1015.0
20260508045719 47 292 2.0 5.0 0.00 0.55 0.00 94 1014.9
20260508045215 47 311 2.0 5.0 0.00 0.55 0.00 94 1014.9
20260508044743 47 303 2.0 5.0 0.00 0.55 0.00 94 1014.9
20260508044218 47 300 2.0 5.0 0.00 0.55 0.00 94 1014.8
20260508043716 46 288 2.0 5.0 0.00 0.55 0.00 94 1014.8
20260508042719 46 256 2.0 3.0 0.00 0.55 0.00 94 1014.8
20260508042351 46 257 1.0 2.0 0.00 0.55 0.00 94 1014.8
20260508041716 46 240 1.0 3.0 0.00 0.55 0.00 93 1014.8
20260508041207 46 240 1.0 3.0 0.00 0.55 0.00 94 1014.9
20260508040711 46 240 2.0 4.0 0.00 0.55 0.00 94 1014.8
20260508040218 46 244 2.0 6.0 0.00 0.55 0.00 94 1014.8
20260508035708 46 244 3.0 6.0 0.00 0.55 0.00 94 1014.7
20260508035218 46 261 3.0 6.0 0.00 0.55 0.00 93 1014.7
20260508034737 46 260 3.0 6.0 0.00 0.55 0.00 93 1014.6
20260508034216 46 264 3.0 6.0 0.00 0.55 0.00 93 1014.6
20260508033717 46 278 4.0 6.0 0.00 0.55 0.00 93 1014.6
20260508032719 46 256 4.0 6.0 0.00 0.55 0.00 93 1014.5
20260508032215 46 259 4.0 7.0 0.00 0.55 0.00 93 1014.5
20260508031707 46 246 4.0 7.0 0.00 0.55 0.00 93 1014.4
20260508031240 46 253 4.0 7.0 0.00 0.55 0.00 93 1014.4
20260508030706 46 258 3.0 6.0 0.00 0.55 0.00 93 1014.4
20260508030208 46 294 3.0 5.0 0.00 0.55 0.00 93 1014.3
20260508025730 46 286 3.0 4.0 0.00 0.55 0.00 93 1014.3
20260508025217 46 286 1.0 3.0 0.00 0.55 0.00 93 1014.3
20260508024708 47 319 0.0 2.0 0.00 0.55 0.00 93 1014.2
20260508024206 47 319 1.0 3.0 0.00 0.55 0.00 93 1014.2
20260508023719 47 319 2.0 3.0 0.00 0.55 0.00 93 1014.1
20260508023205 47 319 2.0 3.0 0.00 0.55 0.00 93 1014.0
20260508022711 47 323 2.0 4.0 0.00 0.55 0.00 93 1014.0
20260508022213 47 327 2.0 4.0 0.00 0.55 0.00 93 1014.0
20260508021710 47 324 3.0 4.0 0.00 0.55 0.00 93 1014.1
20260508021212 47 346 3.0 4.0 0.00 0.55 0.00 93 1014.1
20260508020716 47 355 3.0 4.0 0.00 0.55 0.00 93 1014.0
20260508020420 47 355 3.0 4.0 0.00 0.55 0.00 93 1014.1
20260508015206 48 41 1.0 6.0 0.00 0.55 0.00 93 1014.0
20260508015142 48 267 2.0 6.0 0.00 0.55 0.00 93 1014.1
20260508014215 48 317 2.0 3.0 0.00 0.55 0.00 93 1014.1
20260508013717 48 285 1.0 4.0 0.00 0.55 0.00 93 1014.0
20260508013430 48 290 2.0 4.0 0.00 0.55 0.00 93 1013.9
20260508012713 48 292 2.0 3.0 0.00 0.55 0.00 93 1013.9
20260508012207 49 286 2.0 4.0 0.00 0.55 0.00 93 1013.9
20260508011705 49 277 2.0 4.0 0.00 0.55 0.00 93 1013.9
20260508011211 49 296 3.0 4.0 0.00 0.55 0.00 93 1013.7
20260508010717 49 292 2.0 6.0 0.00 0.55 0.00 93 1013.6
20260508010509 49 304 2.0 6.0 0.00 0.55 0.00 93 1013.7
20260508005706 49 321 3.0 6.0 0.00 0.55 0.00 93 1013.7
20260508005208 49 336 3.0 5.0 0.00 0.55 0.00 93 1013.6
20260508004713 49 337 3.0 4.0 0.00 0.55 0.00 93 1013.6
20260508004208 49 339 3.0 4.0 0.00 0.55 0.00 93 1013.6
20260508003215 49 311 3.0 4.0 0.00 0.55 0.00 93 1013.7
20260508002403 49 316 1.0 4.0 0.00 0.55 0.00 93 1013.7
20260508001718 49 321 0.0 3.0 0.00 0.55 0.00 93 1013.9
20260508001208 50 38 0.0 4.0 0.00 0.55 0.00 93 1013.7
20260507235711 50 294 2.0 4.0 0.00 0.55 0.55 93 1013.7
20260507235207 50 255 2.0 4.0 0.00 0.55 0.55 93 1013.6
20260507234716 50 258 2.0 4.0 0.00 0.55 0.55 93 1013.6
20260507234214 51 234 2.0 4.0 0.00 0.55 0.55 93 1013.6
20260507233708 51 224 2.0 4.0 0.00 0.55 0.55 93 1013.5
20260507233220 51 259 2.0 5.0 0.00 0.55 0.55 93 1013.6
20260507232216 51 251 3.0 5.0 0.00 0.55 0.55 94 1013.6
20260507231710 51 250 3.0 5.0 0.00 0.55 0.55 93 1013.7
20260507230711 51 234 4.0 8.0 0.00 0.55 0.55 94 1013.9
20260507230211 51 227 3.0 8.0 0.00 0.55 0.55 93 1013.9
20260507225230 51 250 6.0 10.0 0.00 0.55 0.55 93 1013.9
20260507224717 51 257 7.0 10.0 0.00 0.55 0.55 93 1013.7
20260507224209 51 248 7.0 11.0 0.00 0.55 0.55 94 1013.9
20260507223718 51 248 7.0 13.0 0.00 0.55 0.55 94 1013.9
20260507223216 51 263 8.0 13.0 0.00 0.55 0.55 94 1013.7
20260507222707 51 261 7.0 13.0 0.00 0.55 0.55 94 1013.7
20260507222208 51 253 6.0 10.0 0.00 0.55 0.55 94 1013.7
20260507221713 51 261 5.0 9.0 0.00 0.55 0.55 94 1013.6
20260507220714 51 246 5.0 7.0 0.00 0.55 0.55 94 1013.6
20260507215212 51 247 5.0 8.0 0.00 0.55 0.55 94 1013.7
20260507214707 52 253 5.0 8.0 0.00 0.55 0.55 94 1013.6
20260507214206 52 241 5.0 7.0 0.00 0.55 0.55 94 1013.7
20260507213718 52 248 5.0 7.0 0.00 0.55 0.55 94 1013.7
20260507213220 52 250 4.0 7.0 0.00 0.55 0.55 94 1013.7
20260507212206 52 235 4.0 8.0 0.00 0.55 0.55 94 1013.9
20260507211717 52 238 4.0 8.0 0.00 0.55 0.55 94 1013.9
20260507211207 52 238 4.0 8.0 0.01 0.55 0.55 94 1013.9
20260507210716 52 259 5.0 9.0 0.01 0.55 0.55 94 1014.0
20260507210214 52 257 5.0 9.0 0.01 0.55 0.55 94 1014.0
20260507205720 52 238 6.0 9.0 0.01 0.55 0.55 94 1014.0
20260507205211 52 226 6.0 10.0 0.01 0.55 0.55 94 1014.0
20260507204709 52 231 6.0 12.0 0.01 0.55 0.55 94 1014.0
20260507204212 52 234 6.0 12.0 0.01 0.55 0.55 94 1014.0
20260507203216 52 200 5.0 10.0 0.02 0.55 0.55 94 1013.9
20260507202718 52 210 5.0 9.0 0.02 0.55 0.55 93 1014.0
20260507202220 52 187 4.0 11.0 0.02 0.55 0.55 93 1013.9
20260507201716 52 197 4.0 12.0 0.01 0.54 0.54 93 1013.9
20260507201219 52 201 5.0 12.0 0.02 0.54 0.54 94 1013.9
20260507200717 52 227 5.0 12.0 0.02 0.54 0.54 94 1013.9
20260507200220 52 223 5.0 10.0 0.02 0.54 0.54 94 1013.9
20260507195706 52 210 4.0 9.0 0.04 0.54 0.54 94 1013.9
20260507195241 52 180 4.0 12.0 0.05 0.54 0.54 94 1013.9
20260507194714 52 205 5.0 12.0 0.06 0.54 0.54 94 1013.9
20260507194211 52 180 6.0 12.0 0.07 0.54 0.54 94 1013.7
20260507193707 52 205 7.0 12.0 0.07 0.54 0.54 93 1013.7
20260507193220 52 213 7.0 14.0 0.08 0.54 0.54 93 1013.7
20260507192708 52 202 7.0 15.0 0.08 0.54 0.54 93 1013.6
20260507192218 52 205 8.0 15.0 0.09 0.54 0.54 93 1013.7
20260507191713 52 217 9.0 17.0 0.10 0.54 0.54 93 1013.6
20260507191219 52 220 9.0 17.0 0.11 0.53 0.53 93 1013.6
20260507190215 52 211 8.0 13.0 0.11 0.51 0.51 93 1013.4
20260507185713 52 199 7.0 13.0 0.11 0.50 0.50 93 1013.5
20260507185206 52 169 7.0 13.0 0.12 0.50 0.50 93 1013.4
20260507184705 53 199 6.0 13.0 0.12 0.48 0.48 93 1013.2
20260507184211 53 185 6.0 13.0 0.12 0.47 0.46 93 1013.2
20260507183716 53 206 6.0 15.0 0.13 0.46 0.46 93 1013.0
20260507183210 53 232 6.0 15.0 0.14 0.46 0.46 93 1013.0
20260507182212 53 213 8.0 14.0 0.16 0.44 0.44 93 1012.9
20260507181707 53 215 9.0 14.0 0.17 0.43 0.43 92 1012.9
20260507180716 53 192 8.0 15.0 0.19 0.41 0.41 92 1012.8
20260507180214 53 223 8.0 15.0 0.19 0.39 0.39 92 1012.8
20260507175718 53 235 9.0 15.0 0.19 0.39 0.39 92 1012.6
20260507175210 53 236 9.0 14.0 0.20 0.38 0.38 92 1012.7
20260507174235 53 226 9.0 13.0 0.19 0.35 0.35 92 1012.7
20260507173212 53 238 7.0 12.0 0.16 0.31 0.31 91 1012.9
20260507172717 53 205 6.0 14.0 0.15 0.30 0.30 91 1012.8
20260507171717 53 234 6.0 15.0 0.11 0.24 0.24 91 1012.9
20260507171219 54 155 7.0 15.0 0.10 0.24 0.24 91 1012.8
20260507170707 54 200 7.0 13.0 0.09 0.21 0.21 91 1012.7
20260507170207 54 227 6.0 9.0 0.08 0.20 0.20 91 1012.5
20260507165217 54 229 5.0 13.0 0.08 0.17 0.17 90 1012.3
20260507164707 55 178 6.0 13.0 0.08 0.17 0.17 90 1012.3
20260507164205 55 223 6.0 13.0 0.09 0.17 0.17 90 1012.3
20260507163220 55 217 7.0 10.0 0.09 0.15 0.15 90 1012.1
20260507162707 55 225 5.0 10.0 0.08 0.14 0.14 89 1012.0
20260507162215 56 213 4.0 9.0 0.09 0.14 0.14 89 1011.9
20260507161720 56 184 5.0 9.0 0.11 0.13 0.13 89 1012.0
20260507161208 56 243 5.0 10.0 0.12 0.13 0.13 88 1011.9
20260507160711 56 242 6.0 10.0 0.11 0.13 0.13 88 1011.8
20260507155717 56 254 6.0 12.0 0.09 0.10 0.10 86 1011.7
20260507155217 57 279 6.0 13.0 0.08 0.09 0.09 85 1011.7
20260507154707 57 270 7.0 15.0 0.06 0.08 0.08 84 1011.6
20260507154211 58 239 6.0 15.0 0.06 0.08 0.08 83 1011.5
20260507153709 58 251 8.0 15.0 0.06 0.07 0.07 82 1011.5
20260507153210 58 254 9.0 15.0 0.05 0.06 0.06 81 1011.4
20260507152716 59 298 7.0 12.0 0.04 0.06 0.06 79 1011.3
20260507152214 60 267 5.0 10.0 0.02 0.04 0.04 79 1011.3
20260507151705 61 296 6.0 10.0 0.01 0.02 0.02 78 1011.2
20260507151211 61 279 7.0 9.0 0.00 0.02 0.02 75 1011.2
20260507150714 61 269 6.0 9.0 0.00 0.02 0.02 72 1011.1
20260507150213 62 259 5.0 8.0 0.00 0.02 0.02 70 1011.0
20260507145713 62 248 4.0 8.0 0.00 0.02 0.02 68 1011.0
20260507145216 62 246 3.0 4.0 0.00 0.02 0.02 68 1010.9
20260507144715 62 263 1.0 3.0 0.00 0.02 0.02 66 1010.9
20260507143714 62 218 1.0 3.0 0.00 0.02 0.02 65 1010.7
20260507143217 63 218 2.0 3.0 0.00 0.02 0.02 66 1010.7
20260507142205 62 234 1.0 2.0 0.00 0.02 0.02 66 1010.8
20260507141718 62 0 1.0 2.0 0.00 0.02 0.02 64 1010.8
20260507140711 62 0 1.0 3.0 0.00 0.02 0.02 64 1010.9
20260507140206 62 0 2.0 3.0 0.00 0.02 0.02 66 1011.0
20260507135719 62 25 2.0 3.0 0.00 0.02 0.02 66 1010.9
20260507135216 62 326 1.0 3.0 0.00 0.02 0.02 65 1010.9
20260507134712 62 194 1.0 6.0 0.00 0.02 0.02 67 1010.9
20260507133210 62 157 3.0 9.0 0.00 0.02 0.02 69 1011.1
20260507132708 62 137 4.0 9.0 0.00 0.02 0.02 71 1011.2
20260507132215 62 137 4.0 8.0 0.01 0.02 0.02 73 1011.2
20260507131707 62 173 3.0 7.0 0.01 0.02 0.02 74 1011.2
20260507131245 61 174 4.0 8.0 0.02 0.02 0.02 75 1011.3
20260507130708 61 178 4.0 8.0 0.02 0.02 0.02 75 1011.4
20260507130216 61 151 4.0 8.0 0.02 0.02 0.02 77 1011.4
20260507125714 61 200 3.0 6.0 0.02 0.02 0.02 77 1011.3
20260507125213 60 190 2.0 4.0 0.02 0.02 0.02 77 1011.4
20260507124706 60 213 2.0 4.0 0.02 0.02 0.02 77 1011.3
20260507124238 60 233 2.0 4.0 0.02 0.02 0.02 77 1011.3
20260507123715 60 236 1.0 7.0 0.02 0.02 0.02 77 1011.4
20260507123210 60 219 2.0 9.0 0.02 0.02 0.02 77 1011.4
20260507122231 60 255 6.0 11.0 0.01 0.01 0.01 76 1011.4
20260507121717 60 251 8.0 11.0 0.01 0.01 0.01 75 1011.5
20260507121211 61 238 8.0 11.0 0.00 0.00 0.00 74 1011.5
20260507120719 62 238 8.0 11.0 0.00 0.00 0.00 73 1011.4
20260507120213 62 246 7.0 11.0 0.00 0.00 0.00 70 1011.4
20260507115713 63 246 5.0 9.0 0.00 0.00 0.00 68 1011.4
20260507114715 64 288 4.0 8.0 0.00 0.00 0.00 62 1011.3
20260507114212 64 315 3.0 8.0 0.00 0.00 0.00 62 1011.2
20260507113717 64 319 4.0 9.0 0.00 0.00 0.00 59 1011.1
20260507113218 64 5 5.0 9.0 0.00 0.00 0.00 57 1011.2
20260507112711 64 31 6.0 11.0 0.00 0.00 0.00 57 1011.1
20260507112207 65 323 5.0 11.0 0.00 0.00 0.00 58 1011.1
20260507111215 65 338 4.0 10.0 0.00 0.00 0.00 54 1011.1
20260507110709 65 17 4.0 11.0 0.00 0.00 0.00 53 1011.1
20260507105720 66 0 6.0 11.0 0.00 0.00 0.00 53 1011.2
20260507105217 66 337 4.0 11.0 0.00 0.00 0.00 53 1011.2
20260507104706 66 24 3.0 8.0 0.00 0.00 0.00 53 1011.2
20260507104210 66 53 3.0 9.0 0.00 0.00 0.00 54 1011.2
20260507103713 65 14 4.0 9.0 0.00 0.00 0.00 53 1011.2
20260507103216 65 22 4.0 9.0 0.00 0.00 0.00 54 1011.3
20260507102208 64 80 3.0 8.0 0.00 0.00 0.00 55 1011.5
20260507101718 64 86 4.0 8.0 0.00 0.00 0.00 56 1011.6
20260507101210 64 96 4.0 9.0 0.00 0.00 0.00 55 1011.5
20260507100710 64 114 4.0 9.0 0.00 0.00 0.00 57 1011.6
20260507100213 64 96 5.0 9.0 0.00 0.00 0.00 58 1011.6
20260507095719 63 88 5.0 9.0 0.00 0.00 0.00 58 1011.5
20260507095215 63 79 6.0 9.0 0.00 0.00 0.00 59 1011.4
20260507094713 63 78 5.0 9.0 0.00 0.00 0.00 60 1011.4
20260507094216 63 108 5.0 11.0 0.00 0.00 0.00 61 1011.4
20260507093709 63 85 6.0 11.0 0.00 0.00 0.00 60 1011.4
20260507093209 63 113 7.0 11.0 0.00 0.00 0.00 60 1011.4
20260507092707 63 108 7.0 11.0 0.00 0.00 0.00 62 1011.4
20260507092207 63 109 7.0 12.0 0.00 0.00 0.00 63 1011.3
20260507091715 63 100 7.0 12.0 0.00 0.00 0.00 64 1011.3
20260507090712 63 130 7.0 11.0 0.00 0.00 0.00 64 1011.4
20260507090206 63 138 7.0 11.0 0.00 0.00 0.00 62 1011.3
20260507085720 63 128 6.0 11.0 0.00 0.00 0.00 61 1011.2
20260507085212 63 142 4.0 11.0 0.00 0.00 0.00 61 1011.1
20260507084209 63 162 5.0 10.0 0.00 0.00 0.00 60 1011.1
20260507083717 63 157 5.0 8.0 0.00 0.00 0.00 61 1011.0
20260507083213 62 150 3.0 10.0 0.00 0.00 0.00 57 1010.9
20260507082719 62 283 2.0 12.0 0.00 0.00 0.00 56 1010.9
20260507082218 62 262 4.0 13.0 0.00 0.00 0.00 56 1010.7
20260507081217 62 162 7.0 13.0 0.00 0.00 0.00 62 1010.6
20260507080718 63 225 7.0 10.0 0.00 0.00 0.00 55 1010.4
20260507080217 63 250 6.0 10.0 0.00 0.00 0.00 53 1010.4
20260507075206 62 267 7.0 10.0 0.00 0.00 0.00 53 1010.4
20260507074716 62 258 6.0 10.0 0.00 0.00 0.00 52 1010.4
20260507074205 62 294 5.0 9.0 0.00 0.00 0.00 54 1010.4
20260507073714 62 261 4.0 9.0 0.00 0.00 0.00 53 1010.4
20260507073221 62 290 4.0 10.0 0.00 0.00 0.00 54 1010.4
20260507071715 62 254 4.0 6.0 0.00 0.00 0.00 53 1010.2
20260507071212 62 248 2.0 4.0 0.00 0.00 0.00 53 1010.0
20260507070710 62 255 1.0 3.0 0.00 0.00 0.00 54 1010.0
20260507070210 62 308 2.0 4.0 0.00 0.00 0.00 54 1010.0
20260507065714 62 235 2.0 6.0 0.00 0.00 0.00 54 1009.9